Showing default

METEOR M2-3, 57166

Orbit data source: Space-Track

METEOR M2-3, 57166 is a Commonwealth of Independent States-origin payload satellite in SSO that was launched on Tue, 27 Jun 2023 UTC via a SOYUZ-2-1B launch vehicle from the Vostochny Cosmodrome (VOSTO). Payload-class satellites include a variety of spacecraft equipped with specific instruments for various scientific and technological missions. These include communications satellites like Starlink; space stations such as the ISS; scientific satellites like the Hubble; Earth observation satellites from companies like Planet Labs, Umbra, and HawkEye 360; GPS; miniature CubeSats for education and research; and military/defense satellites.

Loading next visibility...
Identifier
57166, 2023-091A
Orbit
SSO
Country
Flag of CISCIS
Related business
Manufacturer
VNIIEM
Mission
Operational Civil Weather
Bus & Motor
RESURS-O, Unknown motor
Mass
2,879 kg wet, ~2,600 kg dry
Launch date (UTC)
2023-06-27 (3 years ago)
Launch vehicle
SOYUZ-2-1B
Launch site
Vostochny Cosmodrome (VOSTO)
Object type
Payload
Rocket body
Debris
Shape & HBR
Cyl + 2 Pan, 7.0 m
Radar Cross Section
26.744 m², Large (>1 m²)

Expand to show TLE details & history
Last TLE update: 17 hours ago

TLE from 17 hours ago
0 METEOR M2-3
1 57166U 23091A   26149.61947669  .00000015  00000-0  25395-4 0  9994
2 57166  98.6102 204.9765 0003292 209.0948 151.0048 14.24044984151875
Epoch: 2026-05-29T14:52Z
TLE epoch observation values (Epoch: 2026-05-29T14:52:02.786Z)
Latitude
Longitude
94.81764°
Altitude
816.699 km
Speed
7.444 km/s
True Right ascension
13h 39m 54s
True Declination
0° 00' 00"
Sunlit
Object was in full shadow at epoch
Visualization orbit readout
Latitude
Unknown
Longitude
Unknown
Altitude
Unknown
Speed
Unknown
Apparent Right ascension
Unknown
Apparent Declination
Unknown
Sunlit
N/A
Visualization observer readout
Local Sidereal Time
17:45:19
Azimuth
Unknown
Elevation
Unknown
Doppler factor
Unknown
Orbital elements
Apogee altitude
811.22 km
Perigee altitude
806.488 km
Semi-major axis
7,186.991 km
Eccentricity
0.00033
Inclination
98.6102°
RAAN
204.9765°
Arg. of periapsis
209.0948°
True anomaly
151.02308°
Mean anomaly
151.0048°
Eccentric anomaly
151.01394°
Mean motion
3.56223 °/min
Orbital period
101.06 mins
BSTAR
0.000025395
Loading maneuver chart data...
Computing Atmospheric mass density...
Loading historical data...
Loading historical data...
Loading historical data...
Loading historical data...
Loading historical data...
Loading historical data...
Loading historical data...

Documentation

Showing up to 5 results
|